Location: Unspecified
(33.8360°N, 0.0000°E)
Time: 04:14:54
(UTC+00:00)

SCOUT G-1 DEB - Visible Passes

Search period start: 04 April 2026 00:00
Search period end: 14 April 2026 00:00
Orbit: 834 x 979 km, 90.3° (Epoch: 28 March)

Date Brightness Start Highest point End Pass type
(mag) Time Alt. Az. Time Alt. Az. Time Alt. Az.
4 Apr ? 01:45:08 10° NNE 01:46:14 16° NNE 01:46:14 16° NNE visible
5 Apr ? 01:49:37 10° N 01:50:48 17° NNE 01:50:48 17° NNE visible
6 Apr ? 01:54:07 10° N 01:55:22 17° N 01:55:22 17° N visible
7 Apr ? 01:58:38 10° N 01:59:55 17° N 01:59:55 17° N visible
8 Apr ? 02:03:11 10° N 02:04:28 17° N 02:04:28 17° N visible
9 Apr ? 02:07:45 10° N 02:09:00 17° N 02:09:00 17° N visible
10 Apr ? 02:12:21 10° N 02:13:32 17° N 02:13:32 17° N visible
11 Apr ? 02:16:58 10° NNW 02:18:03 16° NNW 02:18:03 16° NNW visible
12 Apr ? 02:21:36 10° NNW 02:22:34 15° NNW 02:22:34 15° NNW visible
13 Apr ? 00:43:38 10° NNE 00:43:55 11° NNE 00:43:55 11° NNE visible
13 Apr ? 02:26:17 10° NNW 02:27:06 14° NNW 02:27:06 14° NNW visible
